Location: Bratislava
(48.1500°N, 17.1170°E)
Time: 16:02:28
(UTC+02:00)

HTV-X1 - Visible Passes

Search period start: 10 May 2026 00:00
Search period end: 20 May 2026 00:00
Orbit: 373 x 383 km, 51.6° (Epoch: 10 May)

Date Brightness Start Highest point End Pass type
(mag) Time Alt. Az. Time Alt. Az. Time Alt. Az.
10 May ? 04:07:08 16° SSW 04:07:08 16° SSW 04:08:39 10° S visible
10 May ? 22:14:50 10° WSW 22:17:54 88° S 22:20:56 10° ENE visible
10 May ? 23:51:02 10° WNW 23:53:07 32° NW 23:53:07 32° NW visible
11 May ? 21:14:09 10° SW 21:17:07 48° SSE 21:20:07 10° ENE visible
11 May ? 22:50:01 10° W 22:53:02 49° NNW 22:55:15 16° ENE visible
12 May ? 00:26:15 10° WNW 00:27:22 19° WNW 00:27:22 19° WNW visible
12 May ? 21:49:02 10° WSW 21:52:07 70° NNW 21:55:11 10° ENE visible
12 May ? 23:25:19 10° WNW 23:28:15 41° N 23:29:01 33° NE visible
13 May ? 22:24:16 10° W 22:27:14 43° N 22:30:14 10° ENE visible
14 May ? 00:00:25 10° WNW 00:02:32 36° NW 00:02:32 36° NW visible
14 May ? 21:23:11 10° W 21:26:14 56° NNW 21:29:17 10° ENE visible
14 May ? 22:59:28 10° WNW 23:02:26 42° N 23:03:49 25° ENE visible
15 May ? 00:35:24 10° WNW 00:35:54 14° WNW 00:35:54 14° WNW visible
15 May ? 21:58:25 10° WNW 22:01:22 41° N 22:04:19 10° ENE visible
15 May ? 23:34:28 10° WNW 23:37:08 55° NNW 23:37:08 55° NNW visible
16 May ? 20:57:18 10° W 21:00:18 47° N 21:03:19 10° ENE visible
16 May ? 22:33:30 10° WNW 22:36:31 46° N 22:38:19 20° ENE visible
17 May ? 00:09:25 10° WNW 00:10:24 18° WNW 00:10:24 18° WNW visible
17 May ? 21:32:28 10° WNW 21:35:25 41° N 21:38:22 10° ENE visible
17 May ? 23:08:25 10° WNW 23:11:31 83° NNE 23:11:33 83° NE visible
18 May ? 22:07:26 10° WNW 22:10:29 55° NNE 22:12:42 17° E visible
18 May ? 23:43:25 10° WNW 23:44:46 22° W 23:44:46 22° W visible
19 May ? 21:06:24 10° WNW 21:09:22 43° N 21:12:20 10° E visible
19 May ? 22:42:19 10° WNW 22:45:23 72° SSW 22:45:54 55° SE visible
